Time,TemperatureF,DewpointF,PressureIn,WindDirection,WindDirectionDegrees,WindSpeedMPH,WindSpeedGustMPH,Humidity,HourlyPrecipIn,Conditions,Clouds,dailyrainin,SoftwareType,DateUTC
2013-07-13 00:02:00,68.3,66.0,25.86,SE,138,4.0,10.0,91,0.05,,,0.09,weatherlink.com 1.10,2013-07-13 06:02:00,
2013-07-13 00:17:00,67.9,66.0,25.84,SE,132,7.0,9.0,92,0.07,,,0.03,weatherlink.com 1.10,2013-07-13 06:17:00,
2013-07-13 00:32:00,67.7,66.0,25.81,East,87,7.0,8.0,93,0.08,,,0.05,weatherlink.com 1.10,2013-07-13 06:32:00,
2013-07-13 00:47:00,67.4,64.0,25.80,SE,142,5.0,10.0,88,0.08,,,0.05,weatherlink.com 1.10,2013-07-13 06:47:00,
2013-07-13 01:03:00,67.2,64.0,25.80,SE,126,3.0,6.0,90,0.05,,,0.05,weatherlink.com 1.10,2013-07-13 07:03:00,
2013-07-13 01:17:00,66.9,64.0,25.80,SE,126,9.0,9.0,91,0.02,,,0.05,weatherlink.com 1.10,2013-07-13 07:17:00,
2013-07-13 01:32:00,66.5,65.0,25.78,East,95,9.0,10.0,93,0.00,,,0.05,weatherlink.com 1.10,2013-07-13 07:32:00,
2013-07-13 01:47:00,66.4,64.0,25.77,East,95,6.0,9.0,93,0.00,,,0.05,weatherlink.com 1.10,2013-07-13 07:47:00,
2013-07-13 02:02:00,66.2,64.0,25.77,SSE,150,5.0,10.0,93,0.00,,,0.05,weatherlink.com 1.10,2013-07-13 08:02:00,
2013-07-13 02:17:00,66.0,64.0,25.77,ESE,120,6.0,8.0,93,0.00,,,0.05,weatherlink.com 1.10,2013-07-13 08:17:00,
2013-07-13 02:32:00,65.9,64.0,25.76,East,94,5.0,8.0,92,0.00,,,0.05,weatherlink.com 1.10,2013-07-13 08:32:00,
2013-07-13 02:47:00,65.8,64.0,25.76,ESE,103,4.0,6.0,93,0.00,,,0.05,weatherlink.com 1.10,2013-07-13 08:47:00,
2013-07-13 03:02:00,65.9,64.0,25.77,ESE,122,2.0,5.0,93,0.00,,,0.05,weatherlink.com 1.10,2013-07-13 09:02:00,
2013-07-13 03:17:00,65.8,64.0,25.78,NE,52,0.0,3.0,93,0.00,,,0.05,weatherlink.com 1.10,2013-07-13 09:17:00,
2013-07-13 03:32:00,65.8,64.0,25.78,East,101,0.0,0.0,93,0.00,,,0.05,weatherlink.com 1.10,2013-07-13 09:32:00,
2013-07-13 03:47:00,65.5,64.0,25.78,NE,46,0.0,1.0,94,0.00,,,0.05,weatherlink.com 1.10,2013-07-13 09:47:00,
2013-07-13 04:02:00,65.3,64.0,25.79,WNW,283,2.0,4.0,94,0.00,,,0.05,weatherlink.com 1.10,2013-07-13 10:02:00,
2013-07-13 04:17:00,64.9,64.0,25.80,West,259,2.0,3.0,95,0.00,,,0.05,weatherlink.com 1.10,2013-07-13 10:17:00,
2013-07-13 04:32:00,64.7,63.0,25.80,West,267,4.0,7.0,95,0.00,,,0.05,weatherlink.com 1.10,2013-07-13 10:32:00,
2013-07-13 04:47:00,64.4,63.0,25.81,WNW,296,2.0,5.0,95,0.00,,,0.05,weatherlink.com 1.10,2013-07-13 10:47:00,
2013-07-13 05:02:00,64.1,63.0,25.80,WNW,294,0.0,5.0,95,0.00,,,0.05,weatherlink.com 1.10,2013-07-13 11:02:00,
2013-07-13 05:17:00,64.1,63.0,25.80,WSW,240,2.0,2.0,96,0.00,,,0.05,weatherlink.com 1.10,2013-07-13 11:17:00,
2013-07-13 05:32:00,64.3,63.0,25.81,WSW,255,3.0,4.0,95,0.00,,,0.05,weatherlink.com 1.10,2013-07-13 11:32:00,
2013-07-13 05:48:00,64.5,63.0,25.81,WNW,294,3.0,4.0,94,0.00,,,0.05,weatherlink.com 1.10,2013-07-13 11:48:00,
2013-07-13 06:03:00,65.1,63.0,25.82,West,267,2.0,5.0,94,0.00,,,0.05,weatherlink.com 1.10,2013-07-13 12:03:00,
2013-07-13 06:18:00,65.1,63.0,25.81,West,274,0.0,3.0,94,0.00,,,0.05,weatherlink.com 1.10,2013-07-13 12:18:00,
2013-07-13 06:33:00,65.8,64.0,25.81,WNW,288,1.0,2.0,93,0.00,,,0.05,weatherlink.com 1.10,2013-07-13 12:33:00,
2013-07-13 06:48:00,66.5,65.0,25.82,West,264,1.0,2.0,93,0.00,,,0.05,weatherlink.com 1.10,2013-07-13 12:48:00,
2013-07-13 07:03:00,67.5,65.0,25.82,West,264,3.0,3.0,92,0.00,,,0.05,weatherlink.com 1.10,2013-07-13 13:03:00,
2013-07-13 07:18:00,68.7,66.0,25.82,WSW,243,4.0,6.0,90,0.00,,,0.05,weatherlink.com 1.10,2013-07-13 13:18:00,
2013-07-13 07:33:00,69.6,66.0,25.82,West,270,6.0,7.0,87,0.00,,,0.05,weatherlink.com 1.10,2013-07-13 13:33:00,
2013-07-13 07:48:00,70.7,66.0,25.82,West,262,7.0,10.0,84,0.00,,,0.05,weatherlink.com 1.10,2013-07-13 13:48:00,
2013-07-13 08:03:00,71.2,66.0,25.82,WSW,255,6.0,10.0,83,0.00,,,0.05,weatherlink.com 1.10,2013-07-13 14:03:00,
2013-07-13 08:18:00,72.5,66.0,25.82,West,262,5.0,9.0,79,0.00,,,0.05,weatherlink.com 1.10,2013-07-13 14:18:00,
2013-07-13 08:33:00,73.7,66.0,25.83,WSW,240,3.0,11.0,76,0.00,,,0.05,weatherlink.com 1.10,2013-07-13 14:33:00,
2013-07-13 08:48:00,74.0,66.0,25.82,SSW,201,9.0,12.0,75,0.00,,,0.05,weatherlink.com 1.10,2013-07-13 14:48:00,
2013-07-13 09:03:00,75.3,66.0,25.83,West,267,6.0,11.0,72,0.00,,,0.05,weatherlink.com 1.10,2013-07-13 15:03:00,
2013-07-13 09:18:00,75.8,65.0,25.83,SW,224,5.0,12.0,69,0.00,,,0.05,weatherlink.com 1.10,2013-07-13 15:18:00,
2013-07-13 09:33:00,77.1,66.0,25.82,SSW,201,6.0,15.0,68,0.00,,,0.05,weatherlink.com 1.10,2013-07-13 15:33:00,
2013-07-13 09:48:00,77.8,66.0,25.82,SSE,150,12.0,14.0,68,0.00,,,0.05,weatherlink.com 1.10,2013-07-13 15:48:00,
2013-07-13 10:03:00,78.3,66.0,25.82,SSW,195,12.0,14.0,66,0.00,,,0.05,weatherlink.com 1.10,2013-07-13 16:03:00,
2013-07-13 10:18:00,78.6,66.0,25.82,SSW,207,14.0,15.0,65,0.00,,,0.05,weatherlink.com 1.10,2013-07-13 16:18:00,
2013-07-13 10:33:00,79.8,66.0,25.82,West,264,8.0,16.0,62,0.00,,,0.05,weatherlink.com 1.10,2013-07-13 16:33:00,
2013-07-13 10:48:00,80.7,64.0,25.82,SSW,195,6.0,17.0,58,0.00,,,0.05,weatherlink.com 1.10,2013-07-13 16:48:00,
2013-07-13 11:03:00,81.2,65.0,25.82,South,181,8.0,19.0,59,0.00,,,0.05,weatherlink.com 1.10,2013-07-13 17:03:00,
2013-07-13 11:18:00,81.1,64.0,25.82,SSE,150,5.0,11.0,57,0.00,,,0.05,weatherlink.com 1.10,2013-07-13 17:18:00,
2013-07-13 11:33:00,82.4,66.0,25.82,WSW,245,8.0,13.0,57,0.00,,,0.05,weatherlink.com 1.10,2013-07-13 17:33:00,
2013-07-13 11:48:00,82.5,65.0,25.82,SW,215,1.0,13.0,55,0.00,,,0.05,weatherlink.com 1.10,2013-07-13 17:48:00,
2013-07-13 12:03:00,82.7,65.0,25.82,SW,218,5.0,12.0,56,0.00,,,0.05,weatherlink.com 1.10,2013-07-13 18:03:00,
2013-07-13 12:18:00,83.0,65.0,25.82,South,170,8.0,12.0,55,0.00,,,0.05,weatherlink.com 1.10,2013-07-13 18:18:00,
2013-07-13 12:33:00,82.8,65.0,25.81,SW,217,8.0,10.0,55,0.00,,,0.05,weatherlink.com 1.10,2013-07-13 18:33:00,
2013-07-13 12:48:00,83.6,65.0,25.81,SW,235,4.0,11.0,53,0.00,,,0.05,weatherlink.com 1.10,2013-07-13 18:48:00,
2013-07-13 13:03:00,84.7,65.0,25.81,SSW,210,6.0,12.0,51,0.00,,,0.05,weatherlink.com 1.10,2013-07-13 19:03:00,
2013-07-13 13:19:00,85.1,64.0,25.81,SSW,197,10.0,15.0,50,0.00,,,0.05,weatherlink.com 1.10,2013-07-13 19:19:00,
2013-07-13 13:34:00,85.4,64.0,25.80,SSE,148,7.0,12.0,49,0.00,,,0.05,weatherlink.com 1.10,2013-07-13 19:34:00,
2013-07-13 13:49:00,84.9,63.0,25.80,West,270,6.0,12.0,48,0.00,,,0.05,weatherlink.com 1.10,2013-07-13 19:49:00,
2013-07-13 14:04:00,86.5,65.0,25.80,East,98,6.0,10.0,48,0.00,,,0.05,weatherlink.com 1.10,2013-07-13 20:04:00,
2013-07-13 14:19:00,86.2,65.0,25.79,ESE,114,8.0,15.0,50,0.00,,,0.05,weatherlink.com 1.10,2013-07-13 20:19:00,
2013-07-13 14:34:00,86.1,65.0,25.79,WSW,238,7.0,15.0,49,0.00,,,0.05,weatherlink.com 1.10,2013-07-13 20:34:00,
2013-07-13 14:49:00,86.0,65.0,25.79,SSE,162,9.0,11.0,49,0.00,,,0.05,weatherlink.com 1.10,2013-07-13 20:49:00,
2013-07-13 15:04:00,86.1,64.0,25.78,ESE,105,10.0,14.0,48,0.00,,,0.05,weatherlink.com 1.10,2013-07-13 21:04:00,
2013-07-13 15:19:00,86.0,63.0,25.78,ENE,70,7.0,13.0,46,0.00,,,0.05,weatherlink.com 1.10,2013-07-13 21:19:00,
2013-07-13 15:34:00,86.5,61.0,25.78,East,97,6.0,12.0,43,0.00,,,0.05,weatherlink.com 1.10,2013-07-13 21:34:00,
2013-07-13 15:49:00,88.0,61.0,25.78,East,97,8.0,12.0,41,0.00,,,0.05,weatherlink.com 1.10,2013-07-13 21:49:00,
2013-07-13 16:04:00,88.4,61.0,25.78,ESE,122,5.0,12.0,40,0.00,,,0.05,weatherlink.com 1.10,2013-07-13 22:04:00,
2013-07-13 16:19:00,88.5,61.0,25.78,East,89,7.0,14.0,40,0.00,,,0.05,weatherlink.com 1.10,2013-07-13 22:19:00,
2013-07-13 16:34:00,89.3,61.0,25.78,East,91,5.0,9.0,39,0.00,,,0.05,weatherlink.com 1.10,2013-07-13 22:34:00,
2013-07-13 16:49:00,88.1,61.0,25.78,East,94,8.0,12.0,40,0.00,,,0.05,weatherlink.com 1.10,2013-07-13 22:49:00,
2013-07-13 17:04:00,87.9,62.0,25.78,SE,143,7.0,11.0,42,0.00,,,0.05,weatherlink.com 1.10,2013-07-13 23:04:00,
2013-07-13 17:19:00,87.3,63.0,25.78,SE,139,9.0,10.0,45,0.00,,,0.05,weatherlink.com 1.10,2013-07-13 23:19:00,
2013-07-13 17:34:00,86.7,63.0,25.78,ESE,111,7.0,12.0,45,0.00,,,0.05,weatherlink.com 1.10,2013-07-13 23:34:00,
2013-07-13 17:49:00,86.6,63.0,25.78,SE,130,8.0,12.0,45,0.00,,,0.05,weatherlink.com 1.10,2013-07-13 23:49:00,
2013-07-13 18:04:00,85.9,65.0,25.78,SE,145,9.0,11.0,49,0.00,,,0.05,weatherlink.com 1.10,2013-07-14 00:04:00,
2013-07-13 18:19:00,85.2,65.0,25.78,ESE,123,7.0,11.0,51,0.00,,,0.05,weatherlink.com 1.10,2013-07-14 00:19:00,
2013-07-13 18:34:00,84.4,66.0,25.78,ESE,108,7.0,11.0,54,0.00,,,0.05,weatherlink.com 1.10,2013-07-14 00:34:00,
2013-07-13 18:49:00,83.8,66.0,25.79,SE,132,8.0,11.0,55,0.00,,,0.05,weatherlink.com 1.10,2013-07-14 00:49:00,
2013-07-13 19:04:00,83.2,66.0,25.79,SE,139,5.0,9.0,57,0.00,,,0.05,weatherlink.com 1.10,2013-07-14 01:04:00,
2013-07-13 19:19:00,82.7,67.0,25.80,SE,126,4.0,9.0,60,0.00,,,0.05,weatherlink.com 1.10,2013-07-14 01:19:00,
2013-07-13 19:34:00,82.1,67.0,25.80,ESE,123,5.0,6.0,61,0.00,,,0.05,weatherlink.com 1.10,2013-07-14 01:34:00,
2013-07-13 19:49:00,81.5,67.0,25.80,SE,139,4.0,7.0,62,0.00,,,0.05,weatherlink.com 1.10,2013-07-14 01:49:00,
2013-07-13 20:04:00,81.3,67.0,25.80,South,190,4.0,6.0,62,0.00,,,0.05,weatherlink.com 1.10,2013-07-14 02:04:00,
2013-07-13 20:19:00,80.7,66.0,25.80,SW,215,2.0,6.0,62,0.00,,,0.05,weatherlink.com 1.10,2013-07-14 02:19:00,
2013-07-13 20:34:00,79.8,67.0,25.79,SSE,150,2.0,3.0,65,0.00,,,0.05,weatherlink.com 1.10,2013-07-14 02:34:00,
2013-07-13 20:49:00,79.0,67.0,25.80,South,173,2.0,3.0,66,0.00,,,0.05,weatherlink.com 1.10,2013-07-14 02:49:00,
2013-07-13 21:04:00,79.1,67.0,25.80,South,170,3.0,4.0,66,0.00,,,0.05,weatherlink.com 1.10,2013-07-14 03:04:00,
2013-07-13 21:19:00,77.9,67.0,25.81,SSW,205,3.0,4.0,68,0.00,,,0.05,weatherlink.com 1.10,2013-07-14 03:19:00,
2013-07-13 21:34:00,77.3,66.0,25.82,West,269,6.0,9.0,69,0.00,,,0.05,weatherlink.com 1.10,2013-07-14 03:34:00,
2013-07-13 21:49:00,76.1,66.0,25.83,WSW,257,4.0,7.0,70,0.00,,,0.05,weatherlink.com 1.10,2013-07-14 03:49:00,
2013-07-13 22:04:00,75.7,63.0,25.83,WNW,300,3.0,4.0,64,0.00,,,0.05,weatherlink.com 1.10,2013-07-14 04:04:00,
2013-07-13 22:19:00,74.7,62.0,25.83,WNW,302,3.0,5.0,64,0.00,,,0.05,weatherlink.com 1.10,2013-07-14 04:19:00,
2013-07-13 22:34:00,73.8,61.0,25.83,West,281,3.0,5.0,65,0.00,,,0.05,weatherlink.com 1.10,2013-07-14 04:34:00,
2013-07-13 22:49:00,73.1,61.0,25.84,West,269,3.0,6.0,67,0.00,,,0.05,weatherlink.com 1.10,2013-07-14 04:49:00,
2013-07-13 23:04:00,73.8,61.0,25.84,West,267,4.0,7.0,65,0.00,,,0.05,weatherlink.com 1.10,2013-07-14 05:04:00,
2013-07-13 23:19:00,74.3,61.0,25.84,WNW,291,7.0,12.0,64,0.00,,,0.05,weatherlink.com 1.10,2013-07-14 05:19:00,
2013-07-13 23:34:00,73.9,61.0,25.83,WNW,300,11.0,13.0,65,0.00,,,0.05,weatherlink.com 1.10,2013-07-14 05:34:00,
2013-07-13 23:49:00,73.7,62.0,25.83,NW,315,12.0,17.0,66,0.00,,,0.05,weatherlink.com 1.10,2013-07-14 05:49:00,